Location: Fernhill
(41.0167°S, 175.6333°E)
Time: 06:54:31
(UTC+00:00)

Meteor 2-12 Rocket - Pass Details

Date: 08 November 2025
Orbit: 934 x 958 km, 82.5° (Epoch: 11 December)

Event Time Altitude Azimuth Distance (km) Brightness Sun altitude
Rises 07:46:39 0° 2° (N) 3,583 7.1 -7.6°
Reaches altitude 10° 07:49:07 10° 4° (N) 2,646 6.5 -8.0°
Maximum altitude 07:55:07 68° 86° (E) 1,012 4.4 -9.0°
Drops below altitude 10° 08:01:11 10° 167° (SSE) 2,680 7.1 -10.0°
Sets 08:03:42 0° 169° (S) 3,633 7.8 -10.4°
